weather.gov     
National Weather Service

Regional Weather Roundup
NWS Homepage
This page is being discontinued on March 12, 2014.
The same data is available at this site. Please update your bookmarks.
Thank you, and we apologize for the inconvenience.
Please send an email to SR-SRH.Webmaster@noaa.gov with any concerns.


Current Version
Previous Version:    01  02  03  04  05  06  07  08  09  10  11  12  13  14  15  16  17  18  19  20  21  22  23  24  25  26  27  28  29  30  
   31  32  33  34  35  36  37  38  39  40  41  42  43  44  45  46  47  48  49  50  51  52  53  54  55  56  57  58  59  60  
[Printable]
184
ASUS43 KGLD 220408
RWRGLD

GOODLAND FORECAST AREA HOURLY WEATHER ROUNDUP
NATIONAL WEATHER SERVICE GOODLAND KS
1000 PM MDT SUN SEP 21 2014

...OFFICIAL OBSERVATIONS...

CITY           SKY/WX    TMP DP  RH WIND       PRES   REMARKS
GOODLAND KS    MOCLDY    57  44  62 SE6       30.34S
HILL CITY KS   CLEAR     55  43  63 CALM      30.31R
IMPERIAL NEB   CLOUDY    62  43  49 SE7       30.32S
MCCOOK NEB     MOCLDY    61  43  51 E3        30.31R
AKRON CO       PTCLDY    57  42  57 SE13      30.32F
BURLINGTON CO  PTCLDY    60  38  43 SE12      30.34F
LIMON CO       PTCLDY    57  39  51 SE9       30.37R
$$

...UNOFFICIAL OBSERVATIONS...

CITY           SKY/WX    TMP DP  RH WIND       PRES   REMARKS
COLBY KS       PTCLDY    55  46  71 E3        30.34S HAZE
GOVE KS          N/A     58  32  37 MISG        N/A
NORTON KS      PTCLDY    54  39  58 CALM      30.30R
SHARON SPRINGS   N/A     57  44  62 CALM        N/A
WAKEENEY KS      N/A     63  36  36 MISG        N/A
TRENTON NEB      N/A     60  32  34 CALM        N/A
KIT CARSON CO    N/A     62  40  44 CALM        N/A
YUMA CO          N/A     59  43  55 SE12        N/A
$$




U.S. Dept. of Commerce
NOAA National Weather Service
1325 East West Highway
Silver Spring, MD 20910
E-mail: w-nws.webmaster@noaa.gov
Page last modified: May 16, 2007
NATIONAL WEATHER SERVICE: for Safety, for Work, for Fun - FOR LIFE